Hourly Data Report for January 28, 2003

SHERBROOKE A
QUEBEC

45°26'00.000" N
71°41'00.000" W
241.40 m
7028124
71610
YSC

Download Data

Hourly Data (January 2003)
Hourly Data Report for January 28, 2003
TIME
LST
Temp Definition
°C
Dew Point Definition
°C
Rel Hum Definition
%
Precip. Amount Definition
mm

Wind Dir Definition
10's deg

Wind Spd Definition
km/h
Visibility Definition
km
Stn Press Definition
kPa
Hmdx Definition


Wind Chill Definition


Weather Definition


00:00 -27.9 -33.3 60     0 15.0 99.66      
01:00 -31.0 -36.5 58   21 6 15.0 99.62   -38  
02:00 -30.6 -35.8 60   19 4 15.0 99.62   -35  
03:00 -32.8 -38.2 58   16 4 15.0 99.63   -38  
04:00 -32.5 -37.8 59   18 6 15.0 99.60   -39  
05:00 -33.6 -38.8 59   15 4 15.0 99.57   -38  
06:00 -34.4 -39.6 59     0 15.0 99.52      
07:00 -34.6 -40.0 58     0 15.0 99.50      
08:00 -31.6 -37.0 59     0 24.1 99.45     Mostly Cloudy
09:00 -28.6 -33.8 61     0 24.1 99.42     Mostly Cloudy
10:00 -24.5 -29.6 63   20 4 24.1 99.39   -28 Mainly Clear
11:00 -22.6 -29.8 52   27 7 24.1 99.29   -29 Mainly Clear
12:00 -20.9 -28.9 49   25 7 24.1 99.19   -27 Mainly Clear
13:00 -19.2 -28.0 46   27 6 24.1 99.07   -24 Mainly Clear
14:00 -17.7 -26.9 44   20 6 24.1 99.03   -22 Mainly Clear
15:00 -16.7 -26.6 42   27 7 24.1 99.00   -22 Mainly Clear
16:00 -16.7 -26.0 44   25 7 24.1 98.95   -22 Mainly Clear
17:00 -17.4 -25.7 48   24 4 24.1 98.95   -21 Snow
18:00 -17.4 -24.4 54     0 15.0 98.93      
19:00 -17.0 -23.7 56     0 15.0 98.87      
20:00 -16.8 -23.2 58     0 15.0 98.83     Snow
21:00 -16.7 -22.5 61     0 15.0 98.83      
22:00 -16.2 -21.7 63     0 15.0 98.76      
23:00 -15.7 -21.0 64     0 15.0 98.74      

Notes on Data Quality.

Legend

  • E = Estimated
  • M = Missing
  • NA = Not Available*
  • [empty] = Indicates an unobserved value
Date modified: